Portada
METAR-TAF:

METAR-TAF

Aeroports :

Chichén Itzá, Mèxic

latitud: 20-38-30N, longitud: 088-26-58W, altitud: 31 m

Observació

L'informe es va fer fa 22 minuts, a les 17:43 UTC
Vent 10 kt del Nord/Nord-Est amb ràfegues de 20 kt
Temperatura 25°C
Humitat 44%
Pressió 1023 hPa
Visibilitat: 12.9 km
Núvols disperses a una alçada de 3000 ft

METAR: MMCT 211743Z 03010G20KT 8SM SCT030 25/12 A3020 RMK 8/500

Hora: 12:05 (18:05 UTC)


TAF: manca

Observacions i pronòstics meteorològics de més de 4000 aeroports (METAR i TAF).

Les estacions disponibles són els punts grocs i vermells al mapa.

Posi el ratolí al punt desitjat per veure el nom de l'estació.

Feu clic per veure les observacions i els pronòstics meteorològics.

Per canviar el mapa: feu clic els botons verds amb una creu de color negre per apropar; al botó verd amb un guió per allunyar la imatge; o en les fletxes verdes per a mapes adjacents.


METAR-TAF: